Home   Weather   Mason   Past weeks

Flag for USA Past Weather in Mason, Ohio, USA — Yesterday and Last 2 Weeks

Now
74 °F

Clear.


Feels Like: 74 °F
Forecast: 68 / 85 °F
Wind: 8 mph from North

Location: Butler County Regional Airport

Current Time: Aug 31, 2016 at 12:32:31 AM

Latest Report: Aug 30, 2016 at 11:53 PM


Visibility: 10 mi

Pressure: 30.06 "Hg

Humidity: 82%

Dew Point: 68 °F

Location of MasonLocation

Past Weather in Mason — Graph

°F

Mason Temperature Yesterday

Maximum temperature yesterday: 91 °F (at 3:53 PM)
Minimum temperature yesterday: 65 °F (at 6:53 AM)
Average temperature yesterday: 77 °F

High & Low Weather Summary for the Past Weeks

 TemperatureHumidityPressure
High92 °F (Aug 26, 3:53 PM)97% (Aug 17, 3:53 AM)30.30 "Hg (Aug 17, 3:53 AM)
Low55 °F (Aug 22, 4:53 AM)37% (Aug 30, 3:53 PM)29.72 "Hg (Aug 20, 4:53 PM)
Average75 °F79%30.08 "Hg
* Reported Aug 15 10:53 PM — Aug 30 10:53 PM, Mason, Weather by CustomWeather, © 2016

Note: Actual official high and low records may vary slightly from our data, if they occured in-between our weather recording intervals... More about our weather records

Advertising

Mason Weather History for the Previous 24 Hours

Scroll right to see more
 ConditionsComfort  
Time TempWeatherWind HumidityBarometerVisibility
10:53 PM
Tue, Aug 30
70 °FClear.No wind90%30.06 "Hg10 mi
9:53 PM70 °FClear.No wind90%30.05 "Hg10 mi
8:53 PM73 °FSunny.No wind81%30.03 "Hg10 mi
7:53 PM79 °FSunny.No wind65%30.01 "Hg10 mi
6:53 PM85 °FSunny.No wind55%30.02 "Hg10 mi
5:53 PM89 °FSunny.6 mph43%30.03 "Hg10 mi
4:53 PM90 °FSunny.5 mph38%30.05 "Hg10 mi
3:53 PM91 °FSunny.3 mph37%30.08 "Hg10 mi
2:53 PM89 °FSunny.No wind41%30.10 "Hg10 mi
1:53 PM88 °FSunny.5 mph45%30.11 "Hg10 mi
12:53 PM87 °FSunny.No wind48%30.13 "Hg10 mi
11:53 AM85 °FSunny.6 mph53%30.15 "Hg10 mi
10:53 AM81 °FSunny.No wind65%30.15 "Hg10 mi
9:53 AM77 °FSunny.No wind71%30.17 "Hg10 mi
8:53 AM74 °FSunny.No wind79%30.17 "Hg10 mi
7:53 AM68 °FClear.No wind93%30.16 "Hg9 mi
6:53 AM65 °FClear.No wind97%30.16 "Hg9 mi
5:53 AM66 °FClear.No wind93%30.15 "Hg7 mi
4:53 AM66 °FFog.No wind93%30.16 "Hg6 mi
3:53 AM68 °FClear.No wind90%30.16 "Hg10 mi
2:53 AM68 °FClear.No wind93%30.16 "Hg7 mi
1:53 AM70 °FClear.No wind93%30.16 "Hg10 mi
12:53 AM70 °FClear.No wind93%30.16 "Hg10 mi
Weather by CustomWeather, © 2016

See weather overviewHow to use our weather pages